Year,Month,Day,Hour,Minute,Value (Times are PST for temperature in C)
2010,08,04,00,00,17.50
2010,08,04,00,01,17.50
2010,08,04,00,02,17.40
2010,08,04,00,03,17.40
2010,08,04,00,04,17.40
2010,08,04,00,05,17.40
2010,08,04,00,06,17.40
2010,08,04,00,07,17.40
2010,08,04,00,08,17.40
2010,08,04,00,09,17.40
2010,08,04,00,10,17.40
2010,08,04,00,11,17.40
2010,08,04,00,12,17.40
2010,08,04,00,13,17.40
2010,08,04,00,14,17.40
2010,08,04,00,15,17.40
2010,08,04,00,16,17.40
2010,08,04,00,17,17.40
2010,08,04,00,18,17.40
2010,08,04,00,19,17.40
2010,08,04,00,20,17.40
2010,08,04,00,21,17.40
2010,08,04,00,22,17.30
2010,08,04,00,23,17.30
2010,08,04,00,24,17.30
2010,08,04,00,25,17.30
2010,08,04,00,26,17.30
2010,08,04,00,27,17.30
2010,08,04,00,28,17.30
2010,08,04,00,29,17.30
2010,08,04,00,30,17.30
2010,08,04,00,31,17.30
2010,08,04,00,32,17.20
2010,08,04,00,33,17.20
2010,08,04,00,34,17.20
2010,08,04,00,35,17.20
2010,08,04,00,36,17.20
2010,08,04,00,37,17.20
2010,08,04,00,38,17.10
2010,08,04,00,39,17.10
2010,08,04,00,40,17.10
2010,08,04,00,41,17.10
2010,08,04,00,42,17.10
2010,08,04,00,43,17.10
2010,08,04,00,44,17.10
2010,08,04,00,45,17.10
2010,08,04,00,46,17.10
2010,08,04,00,47,17.10
2010,08,04,00,48,17.10
2010,08,04,00,49,17.10
2010,08,04,00,50,17.00
2010,08,04,00,51,17.00
2010,08,04,00,52,17.00
2010,08,04,00,53,16.90
2010,08,04,00,54,16.90
2010,08,04,00,55,16.90
2010,08,04,00,56,16.90
2010,08,04,00,57,16.80
2010,08,04,00,58,16.80
2010,08,04,00,59,16.80
2010,08,04,01,00,16.80
2010,08,04,01,01,16.80
2010,08,04,01,02,16.80
2010,08,04,01,03,16.80
2010,08,04,01,04,16.80
2010,08,04,01,05,16.80
2010,08,04,01,06,16.80
2010,08,04,01,07,16.80
2010,08,04,01,08,16.80
2010,08,04,01,09,16.80
2010,08,04,01,10,16.80
2010,08,04,01,11,16.80
2010,08,04,01,12,16.80
2010,08,04,01,13,16.80
2010,08,04,01,14,16.80
2010,08,04,01,15,16.80
2010,08,04,01,16,16.80
2010,08,04,01,17,16.80
2010,08,04,01,18,16.80
2010,08,04,01,19,16.80
2010,08,04,01,20,16.90
2010,08,04,01,21,16.90
2010,08,04,01,22,16.90
2010,08,04,01,23,16.90
2010,08,04,01,24,16.90
2010,08,04,01,25,16.90
2010,08,04,01,26,16.90
2010,08,04,01,27,16.90
2010,08,04,01,28,16.90
2010,08,04,01,29,16.80
2010,08,04,01,30,16.80
2010,08,04,01,31,16.80
2010,08,04,01,32,16.80
2010,08,04,01,33,16.80
2010,08,04,01,34,16.80
2010,08,04,01,35,16.80
2010,08,04,01,36,16.80
2010,08,04,01,37,16.80
2010,08,04,01,38,16.80
2010,08,04,01,39,16.80
2010,08,04,01,40,16.80
2010,08,04,01,41,16.80
2010,08,04,01,42,16.80
2010,08,04,01,43,16.80
2010,08,04,01,44,16.70
2010,08,04,01,45,16.70
2010,08,04,01,46,16.70
2010,08,04,01,47,16.70
2010,08,04,01,48,16.70
2010,08,04,01,49,16.70
2010,08,04,01,50,16.70
2010,08,04,01,51,16.70
2010,08,04,01,52,16.70
2010,08,04,01,53,16.70
2010,08,04,01,54,16.70
2010,08,04,01,55,16.70
2010,08,04,01,56,16.70
2010,08,04,01,57,16.60
2010,08,04,01,58,16.60
2010,08,04,01,59,16.60
2010,08,04,02,00,16.60
2010,08,04,02,01,16.60
2010,08,04,02,02,16.60
2010,08,04,02,03,16.60
2010,08,04,02,04,16.60
2010,08,04,02,05,16.60
2010,08,04,02,06,16.60
2010,08,04,02,07,16.60
2010,08,04,02,08,16.60
2010,08,04,02,09,16.60
2010,08,04,02,10,16.60
2010,08,04,02,11,16.60
2010,08,04,02,12,16.60
2010,08,04,02,13,16.60
2010,08,04,02,14,16.60
2010,08,04,02,15,16.60
2010,08,04,02,16,16.50
2010,08,04,02,17,16.50
2010,08,04,02,18,16.50
2010,08,04,02,19,16.40
2010,08,04,02,20,16.40
2010,08,04,02,21,16.40
2010,08,04,02,22,16.40
2010,08,04,02,23,16.40
2010,08,04,02,24,16.40
2010,08,04,02,25,16.30
2010,08,04,02,26,16.30
2010,08,04,02,27,16.30
2010,08,04,02,28,16.30
2010,08,04,02,29,16.30
2010,08,04,02,30,16.30
2010,08,04,02,31,16.30
2010,08,04,02,32,16.30
2010,08,04,02,33,16.30
2010,08,04,02,34,16.20
2010,08,04,02,35,16.20
2010,08,04,02,36,16.20
2010,08,04,02,37,16.30
2010,08,04,02,38,16.30
2010,08,04,02,39,16.30
2010,08,04,02,40,16.30
2010,08,04,02,41,16.30
2010,08,04,02,42,16.30
2010,08,04,02,43,16.30
2010,08,04,02,44,16.30
2010,08,04,02,45,16.30
2010,08,04,02,46,16.30
2010,08,04,02,47,16.30
2010,08,04,02,48,16.40
2010,08,04,02,49,16.40
2010,08,04,02,50,16.40
2010,08,04,02,51,16.40
2010,08,04,02,52,16.40
2010,08,04,02,53,16.40
2010,08,04,02,54,16.40
2010,08,04,02,55,16.40
2010,08,04,02,56,16.40
2010,08,04,02,57,16.40
2010,08,04,02,58,16.40
2010,08,04,02,59,16.40
2010,08,04,03,00,16.40
2010,08,04,03,01,16.40
2010,08,04,03,02,16.50
2010,08,04,03,03,16.50
2010,08,04,03,04,16.60
2010,08,04,03,05,16.60
2010,08,04,03,06,16.60
2010,08,04,03,07,16.70
2010,08,04,03,08,16.70
2010,08,04,03,09,16.70
2010,08,04,03,10,16.80
2010,08,04,03,11,16.90
2010,08,04,03,12,17.00
2010,08,04,03,13,17.00
2010,08,04,03,14,17.10
2010,08,04,03,15,17.20
2010,08,04,03,16,17.30
2010,08,04,03,17,17.40
2010,08,04,03,18,17.40
2010,08,04,03,19,17.50
2010,08,04,03,20,17.50
2010,08,04,03,21,17.60
2010,08,04,03,22,17.60
2010,08,04,03,23,17.60
2010,08,04,03,24,17.70
2010,08,04,03,25,17.70
2010,08,04,03,26,17.70
2010,08,04,03,27,17.80
2010,08,04,03,28,17.80
2010,08,04,03,29,17.80
2010,08,04,03,30,17.80
2010,08,04,03,31,17.80
2010,08,04,03,32,17.80
2010,08,04,03,33,17.80
2010,08,04,03,34,17.70
2010,08,04,03,35,17.70
2010,08,04,03,36,17.70
2010,08,04,03,37,17.70
2010,08,04,03,38,17.80
2010,08,04,03,39,17.80
2010,08,04,03,40,17.80
2010,08,04,03,41,17.80
2010,08,04,03,42,17.80
2010,08,04,03,43,17.90
2010,08,04,03,44,17.90
2010,08,04,03,45,17.90
2010,08,04,03,46,18.00
2010,08,04,03,47,18.00
2010,08,04,03,48,18.00
2010,08,04,03,49,18.00
2010,08,04,03,50,18.00
2010,08,04,03,51,17.90
2010,08,04,03,52,17.90
2010,08,04,03,53,17.90
2010,08,04,03,54,17.80
2010,08,04,03,55,17.80
2010,08,04,03,56,17.80
2010,08,04,03,57,17.80
2010,08,04,03,58,17.80
2010,08,04,03,59,17.80
2010,08,04,04,00,17.70
2010,08,04,04,01,17.70
2010,08,04,04,02,17.70
2010,08,04,04,03,17.70
2010,08,04,04,04,17.60
2010,08,04,04,05,17.60
2010,08,04,04,06,17.50
2010,08,04,04,07,17.50
2010,08,04,04,08,17.40
2010,08,04,04,09,17.40
2010,08,04,04,10,17.30
2010,08,04,04,11,17.30
2010,08,04,04,12,17.30
2010,08,04,04,13,17.30
2010,08,04,04,14,17.30
2010,08,04,04,15,17.30
2010,08,04,04,16,17.30
2010,08,04,04,17,17.20
2010,08,04,04,18,17.20
2010,08,04,04,19,17.20
2010,08,04,04,20,17.20
2010,08,04,04,21,17.20
2010,08,04,04,22,17.10
2010,08,04,04,23,17.10
2010,08,04,04,24,17.10
2010,08,04,04,25,17.10
2010,08,04,04,26,17.20
2010,08,04,04,27,17.20
2010,08,04,04,28,17.30
2010,08,04,04,29,17.40
2010,08,04,04,30,17.40
2010,08,04,04,31,17.50
2010,08,04,04,32,17.60
2010,08,04,04,33,17.60
2010,08,04,04,34,17.70
2010,08,04,04,35,17.70
2010,08,04,04,36,17.80
2010,08,04,04,37,17.90
2010,08,04,04,38,18.00
2010,08,04,04,39,18.10
2010,08,04,04,40,18.20
2010,08,04,04,41,18.20
2010,08,04,04,42,18.30
2010,08,04,04,43,18.30
2010,08,04,04,44,18.40
2010,08,04,04,45,18.40
2010,08,04,04,46,18.40
2010,08,04,04,47,18.40
2010,08,04,04,48,18.40
2010,08,04,04,49,18.40
2010,08,04,04,50,18.40
2010,08,04,04,51,18.40
2010,08,04,04,52,18.40
2010,08,04,04,53,18.40
2010,08,04,04,54,18.40
2010,08,04,04,55,18.40
2010,08,04,04,56,18.40
2010,08,04,04,57,18.40
2010,08,04,04,58,18.40
2010,08,04,04,59,18.50
2010,08,04,05,00,18.50
2010,08,04,05,01,18.60
2010,08,04,05,02,18.60
2010,08,04,05,03,18.60
2010,08,04,05,04,18.60
2010,08,04,05,05,18.60
2010,08,04,05,06,18.60
2010,08,04,05,07,18.60
2010,08,04,05,08,18.60
2010,08,04,05,09,18.60
2010,08,04,05,10,18.60
2010,08,04,05,11,18.60
2010,08,04,05,12,18.60
2010,08,04,05,13,18.70
2010,08,04,05,14,18.70
2010,08,04,05,15,18.70
2010,08,04,05,16,18.70
2010,08,04,05,17,18.70
2010,08,04,05,18,18.70
2010,08,04,05,19,18.70
2010,08,04,05,20,18.60
2010,08,04,05,21,18.60
2010,08,04,05,22,18.60
2010,08,04,05,23,18.70
2010,08,04,05,24,18.70
2010,08,04,05,25,18.70
2010,08,04,05,26,18.70
2010,08,04,05,27,18.70
2010,08,04,05,28,18.70
2010,08,04,05,29,18.70
2010,08,04,05,30,18.70
2010,08,04,05,31,18.70
2010,08,04,05,32,18.70
2010,08,04,05,33,18.70
2010,08,04,05,34,18.70
2010,08,04,05,35,18.60
2010,08,04,05,36,18.60
2010,08,04,05,37,18.60
2010,08,04,05,38,18.60
2010,08,04,05,39,18.60
2010,08,04,05,40,18.60
2010,08,04,05,41,18.50
2010,08,04,05,42,18.50
2010,08,04,05,43,18.40
2010,08,04,05,44,18.40
2010,08,04,05,45,18.30
2010,08,04,05,46,18.20
2010,08,04,05,47,18.20
2010,08,04,05,48,18.10
2010,08,04,05,49,18.10
2010,08,04,05,50,18.00
2010,08,04,05,51,18.00
2010,08,04,05,52,17.90
2010,08,04,05,53,17.90
2010,08,04,05,54,17.90
2010,08,04,05,55,17.80
2010,08,04,05,56,17.80
2010,08,04,05,57,17.80
2010,08,04,05,58,17.80
2010,08,04,05,59,17.70
2010,08,04,06,00,17.70
2010,08,04,06,01,17.70
2010,08,04,06,02,17.70
2010,08,04,06,03,17.60
2010,08,04,06,04,17.60
2010,08,04,06,05,17.60
2010,08,04,06,06,17.60
2010,08,04,06,07,17.60
2010,08,04,06,08,17.60
2010,08,04,06,09,17.60
2010,08,04,06,10,17.60
2010,08,04,06,11,17.50
2010,08,04,06,12,17.50
2010,08,04,06,13,17.60
2010,08,04,06,14,17.60
2010,08,04,06,15,17.60
2010,08,04,06,16,17.60
2010,08,04,06,17,17.50
2010,08,04,06,18,17.50
2010,08,04,06,19,17.40
2010,08,04,06,20,17.40
2010,08,04,06,21,17.40
2010,08,04,06,22,17.30
2010,08,04,06,23,17.30
2010,08,04,06,24,17.30
2010,08,04,06,25,17.30
2010,08,04,06,26,17.20
2010,08,04,06,27,17.20
2010,08,04,06,28,17.20
2010,08,04,06,29,17.20
2010,08,04,06,30,17.10
2010,08,04,06,31,17.10
2010,08,04,06,32,17.10
2010,08,04,06,33,17.10
2010,08,04,06,34,17.10
2010,08,04,06,35,17.00
2010,08,04,06,36,17.00
2010,08,04,06,37,17.00
2010,08,04,06,38,17.00
2010,08,04,06,39,17.00
2010,08,04,06,40,17.00
2010,08,04,06,41,17.10
2010,08,04,06,42,17.10
2010,08,04,06,43,17.10
2010,08,04,06,44,17.10
2010,08,04,06,45,17.10
2010,08,04,06,46,17.20
2010,08,04,06,47,17.20
2010,08,04,06,48,17.20
2010,08,04,06,49,17.30
2010,08,04,06,50,17.30
2010,08,04,06,51,17.40
2010,08,04,06,52,17.50
2010,08,04,06,53,17.50
2010,08,04,06,54,17.60
2010,08,04,06,55,17.60
2010,08,04,06,56,17.70
2010,08,04,06,57,17.70
2010,08,04,06,58,17.80
2010,08,04,06,59,17.80
2010,08,04,07,00,17.90
2010,08,04,07,01,17.90
2010,08,04,07,02,18.00
2010,08,04,07,03,18.00
2010,08,04,07,04,18.10
2010,08,04,07,05,18.10
2010,08,04,07,06,18.10
2010,08,04,07,07,18.10
2010,08,04,07,08,18.10
2010,08,04,07,09,18.20
2010,08,04,07,10,18.20
2010,08,04,07,11,18.20
2010,08,04,07,12,18.20
2010,08,04,07,13,18.30
2010,08,04,07,14,18.30
2010,08,04,07,15,18.30
2010,08,04,07,16,18.40
2010,08,04,07,17,18.40
2010,08,04,07,18,18.50
2010,08,04,07,19,18.60
2010,08,04,07,20,18.70
2010,08,04,07,21,18.80
2010,08,04,07,22,18.90
2010,08,04,07,23,19.00
2010,08,04,07,24,19.00
2010,08,04,07,25,19.10
2010,08,04,07,26,19.20
2010,08,04,07,27,19.20
2010,08,04,07,28,19.30
2010,08,04,07,29,19.30
2010,08,04,07,30,19.40
2010,08,04,07,31,19.40
2010,08,04,07,32,19.40
2010,08,04,07,33,19.40
2010,08,04,07,34,19.40
2010,08,04,07,35,19.40
2010,08,04,07,36,19.40
2010,08,04,07,37,19.40
2010,08,04,07,38,19.40
2010,08,04,07,39,19.40
2010,08,04,07,40,19.40
2010,08,04,07,41,19.40
2010,08,04,07,42,19.50
2010,08,04,07,43,19.60
2010,08,04,07,44,19.60
2010,08,04,07,45,19.70
2010,08,04,07,46,19.80
2010,08,04,07,47,19.80
2010,08,04,07,48,19.90
2010,08,04,07,49,20.00
2010,08,04,07,50,20.00
2010,08,04,07,51,20.10
2010,08,04,07,52,20.20
2010,08,04,07,53,20.20
2010,08,04,07,54,20.30
2010,08,04,07,55,20.40
2010,08,04,07,56,20.50
2010,08,04,07,57,20.50
2010,08,04,07,58,20.60
2010,08,04,07,59,20.70
2010,08,04,08,00,20.80
2010,08,04,08,01,20.80
2010,08,04,08,02,20.90
2010,08,04,08,03,20.90
2010,08,04,08,04,21.00
2010,08,04,08,05,21.00
2010,08,04,08,06,21.10
2010,08,04,08,07,21.10
2010,08,04,08,08,21.20
2010,08,04,08,09,21.20
2010,08,04,08,10,21.30
2010,08,04,08,11,21.30
2010,08,04,08,12,21.30
2010,08,04,08,13,21.30
2010,08,04,08,14,21.40
2010,08,04,08,15,21.40
2010,08,04,08,16,21.40
2010,08,04,08,17,21.40
2010,08,04,08,18,21.40
2010,08,04,08,19,21.40
2010,08,04,08,20,21.50
2010,08,04,08,21,21.60
2010,08,04,08,22,21.60
2010,08,04,08,23,21.60
2010,08,04,08,24,21.70
2010,08,04,08,25,21.70
2010,08,04,08,26,21.70
2010,08,04,08,27,21.70
2010,08,04,08,28,21.80
2010,08,04,08,29,21.80
2010,08,04,08,30,21.80
2010,08,04,08,31,21.80
2010,08,04,08,32,21.90
2010,08,04,08,33,21.90
2010,08,04,08,34,22.00
2010,08,04,08,35,22.10
2010,08,04,08,36,22.10
2010,08,04,08,37,22.20
2010,08,04,08,38,22.20
2010,08,04,08,39,22.30
2010,08,04,08,40,22.30
2010,08,04,08,41,22.30
2010,08,04,08,42,22.30
2010,08,04,08,43,22.40
2010,08,04,08,44,22.40
2010,08,04,08,45,22.40
2010,08,04,08,46,22.50
2010,08,04,08,47,22.60
2010,08,04,08,48,22.60
2010,08,04,08,49,22.70
2010,08,04,08,50,22.70
2010,08,04,08,51,22.80
2010,08,04,08,52,22.80
2010,08,04,08,53,22.90
2010,08,04,08,54,23.00
2010,08,04,08,55,23.00
2010,08,04,08,56,23.10
2010,08,04,08,57,23.10
2010,08,04,08,58,23.20
2010,08,04,08,59,23.20
2010,08,04,09,00,23.30
2010,08,04,09,01,23.30
2010,08,04,09,02,23.40
2010,08,04,09,03,23.40
2010,08,04,09,04,23.50
2010,08,04,09,05,23.50
2010,08,04,09,06,23.60
2010,08,04,09,07,23.60
2010,08,04,09,08,23.70
2010,08,04,09,09,23.70
2010,08,04,09,10,23.70
2010,08,04,09,11,23.60
2010,08,04,09,12,23.60
2010,08,04,09,13,23.60
2010,08,04,09,14,23.60
2010,08,04,09,15,23.60
2010,08,04,09,16,23.50
2010,08,04,09,17,23.40
2010,08,04,09,18,23.40
2010,08,04,09,19,23.40
2010,08,04,09,20,23.30
2010,08,04,09,21,23.30
2010,08,04,09,22,23.20
2010,08,04,09,23,23.10
2010,08,04,09,24,23.00
2010,08,04,09,25,22.90
2010,08,04,09,26,22.80
2010,08,04,09,27,22.70
2010,08,04,09,28,22.70
2010,08,04,09,29,22.70
2010,08,04,09,30,22.80
2010,08,04,09,31,22.80
2010,08,04,09,32,22.70
2010,08,04,09,33,22.70
2010,08,04,09,34,22.70
2010,08,04,09,35,22.60
2010,08,04,09,36,22.60
2010,08,04,09,37,22.50
2010,08,04,09,38,22.50
2010,08,04,09,39,22.40
2010,08,04,09,40,22.40
2010,08,04,09,41,22.40
2010,08,04,09,42,22.40
2010,08,04,09,43,22.40
2010,08,04,09,44,22.30
2010,08,04,09,45,22.30
2010,08,04,09,46,22.30
2010,08,04,09,47,22.20
2010,08,04,09,48,22.20
2010,08,04,09,49,22.20
2010,08,04,09,50,22.20
2010,08,04,09,51,22.20
2010,08,04,09,52,22.20
2010,08,04,09,53,22.20
2010,08,04,09,54,22.30
2010,08,04,09,55,22.30
2010,08,04,09,56,22.30
2010,08,04,09,57,22.30
2010,08,04,09,58,22.30
2010,08,04,09,59,22.30
2010,08,04,10,00,22.30
2010,08,04,10,01,22.30
2010,08,04,10,02,22.30
2010,08,04,10,03,22.40
2010,08,04,10,04,22.40
2010,08,04,10,05,22.50
2010,08,04,10,06,22.50
2010,08,04,10,07,22.60
2010,08,04,10,08,22.60
2010,08,04,10,09,22.60
2010,08,04,10,10,22.60
2010,08,04,10,11,22.60
2010,08,04,10,12,22.60
2010,08,04,10,13,22.50
2010,08,04,10,14,22.50
2010,08,04,10,15,22.40
2010,08,04,10,16,22.40
2010,08,04,10,17,22.40
2010,08,04,10,18,22.40
2010,08,04,10,19,22.40
2010,08,04,10,20,22.30
2010,08,04,10,21,22.30
2010,08,04,10,22,22.40
2010,08,04,10,23,22.40
2010,08,04,10,24,22.40
2010,08,04,10,25,22.40
2010,08,04,10,26,22.40
2010,08,04,10,27,22.50
2010,08,04,10,28,22.50
2010,08,04,10,29,22.60
2010,08,04,10,30,22.60
2010,08,04,10,31,22.70
2010,08,04,10,32,22.70
2010,08,04,10,33,22.70
2010,08,04,10,34,22.70
2010,08,04,10,35,22.80
2010,08,04,10,36,22.80
2010,08,04,10,37,22.90
2010,08,04,10,38,22.90
2010,08,04,10,39,22.80
2010,08,04,10,40,22.80
2010,08,04,10,41,22.80
2010,08,04,10,42,22.80
2010,08,04,10,43,22.70
2010,08,04,10,44,22.70
2010,08,04,10,45,22.60
2010,08,04,10,46,22.60
2010,08,04,10,47,22.70
2010,08,04,10,48,22.70
2010,08,04,10,49,22.70
2010,08,04,10,50,22.80
2010,08,04,10,51,22.90
2010,08,04,10,52,23.00
2010,08,04,10,53,23.10
2010,08,04,10,54,23.20
2010,08,04,10,55,23.30
2010,08,04,10,56,23.30
2010,08,04,10,57,23.40
2010,08,04,10,58,23.50
2010,08,04,10,59,23.60
2010,08,04,11,00,23.80
2010,08,04,11,01,23.80
2010,08,04,11,02,23.90
2010,08,04,11,03,23.90
2010,08,04,11,04,24.00
2010,08,04,11,05,24.00
2010,08,04,11,06,24.00
2010,08,04,11,07,24.10
2010,08,04,11,08,24.10
2010,08,04,11,09,24.20
2010,08,04,11,10,24.20
2010,08,04,11,11,24.20
2010,08,04,11,12,24.10
2010,08,04,11,13,24.10
2010,08,04,11,14,24.10
2010,08,04,11,15,24.10
2010,08,04,11,16,24.10
2010,08,04,11,17,24.00
2010,08,04,11,18,23.90
2010,08,04,11,19,23.90
2010,08,04,11,20,23.80
2010,08,04,11,21,23.80
2010,08,04,11,22,23.80
2010,08,04,11,23,23.70
2010,08,04,11,24,23.70
2010,08,04,11,25,23.60
2010,08,04,11,26,23.60
2010,08,04,11,27,23.50
2010,08,04,11,28,23.50
2010,08,04,11,29,23.50
2010,08,04,11,30,23.50
2010,08,04,11,31,23.60
2010,08,04,11,32,23.60
2010,08,04,11,33,23.50
2010,08,04,11,34,23.50
2010,08,04,11,35,23.40
2010,08,04,11,36,23.40
2010,08,04,11,37,23.30
2010,08,04,11,38,23.30
2010,08,04,11,39,23.40
2010,08,04,11,40,23.40
2010,08,04,11,41,23.30
2010,08,04,11,42,23.30
2010,08,04,11,43,23.30
2010,08,04,11,44,23.30
2010,08,04,11,45,23.30
2010,08,04,11,46,23.40
2010,08,04,11,47,23.40
2010,08,04,11,48,23.40
2010,08,04,11,49,23.40
2010,08,04,11,50,23.40
2010,08,04,11,51,23.40
2010,08,04,11,52,23.40
2010,08,04,11,53,23.40
2010,08,04,11,54,23.30
2010,08,04,11,55,23.30
2010,08,04,11,56,23.30
2010,08,04,11,57,23.30
2010,08,04,11,58,23.30
2010,08,04,11,59,23.30
2010,08,04,12,00,23.40
2010,08,04,12,01,23.40
2010,08,04,12,02,23.40
2010,08,04,12,03,23.40
2010,08,04,12,04,23.40
2010,08,04,12,05,23.40
2010,08,04,12,06,23.40
2010,08,04,12,07,23.40
2010,08,04,12,08,23.40
2010,08,04,12,09,23.40
2010,08,04,12,10,23.40
2010,08,04,12,11,23.40
2010,08,04,12,12,23.40
2010,08,04,12,13,23.40
2010,08,04,12,14,23.50
2010,08,04,12,15,23.50
2010,08,04,12,16,23.60
2010,08,04,12,17,23.60
2010,08,04,12,18,23.70
2010,08,04,12,19,23.70
2010,08,04,12,20,23.80
2010,08,04,12,21,23.90
2010,08,04,12,22,24.00
2010,08,04,12,23,24.00
2010,08,04,12,24,24.00
2010,08,04,12,25,24.00
2010,08,04,12,26,24.00
2010,08,04,12,27,24.10
2010,08,04,12,28,24.10
2010,08,04,12,29,24.10
2010,08,04,12,30,24.20
2010,08,04,12,31,24.30
2010,08,04,12,32,24.30
2010,08,04,12,33,24.40
2010,08,04,12,34,24.40
2010,08,04,12,35,24.50
2010,08,04,12,36,24.50
2010,08,04,12,37,24.60
2010,08,04,12,38,24.60
2010,08,04,12,39,24.60
2010,08,04,12,40,24.60
2010,08,04,12,41,24.60
2010,08,04,12,42,24.60
2010,08,04,12,43,24.60
2010,08,04,12,44,24.60
2010,08,04,12,45,24.60
2010,08,04,12,46,24.60
2010,08,04,12,47,24.60
2010,08,04,12,48,24.50
2010,08,04,12,49,24.50
2010,08,04,12,50,24.50
2010,08,04,12,51,24.60
2010,08,04,12,52,24.60
2010,08,04,12,53,24.60
2010,08,04,12,54,24.60
2010,08,04,12,55,24.60
2010,08,04,12,56,24.60
2010,08,04,12,57,24.60
2010,08,04,12,58,24.60
2010,08,04,12,59,24.70
2010,08,04,13,00,24.80
2010,08,04,13,01,25.00
2010,08,04,13,02,25.10
2010,08,04,13,03,25.20
2010,08,04,13,04,25.30
2010,08,04,13,05,25.30
2010,08,04,13,06,25.40
2010,08,04,13,07,25.50
2010,08,04,13,08,25.60
2010,08,04,13,09,25.70
2010,08,04,13,10,25.70
2010,08,04,13,11,25.70
2010,08,04,13,12,25.70
2010,08,04,13,13,25.70
2010,08,04,13,14,25.60
2010,08,04,13,15,25.70
2010,08,04,13,16,25.80
2010,08,04,13,17,25.90
2010,08,04,13,18,25.90
2010,08,04,13,19,25.90
2010,08,04,13,20,25.90
2010,08,04,13,21,25.90
2010,08,04,13,22,25.90
2010,08,04,13,23,25.90
2010,08,04,13,24,25.90
2010,08,04,13,25,26.00
2010,08,04,13,26,26.00
2010,08,04,13,27,26.00
2010,08,04,13,28,26.00
2010,08,04,13,29,26.00
2010,08,04,13,30,26.00
2010,08,04,13,31,26.00
2010,08,04,13,32,26.00
2010,08,04,13,33,26.00
2010,08,04,13,34,26.00
2010,08,04,13,35,26.10
2010,08,04,13,36,26.00
2010,08,04,13,37,26.00
2010,08,04,13,38,25.90
2010,08,04,13,39,25.90
2010,08,04,13,40,25.90
2010,08,04,13,41,26.00
2010,08,04,13,42,26.00
2010,08,04,13,43,26.10
2010,08,04,13,44,26.10
2010,08,04,13,45,26.10
2010,08,04,13,46,26.20
2010,08,04,13,47,26.20
2010,08,04,13,48,26.20
2010,08,04,13,49,26.20
2010,08,04,13,50,26.20
2010,08,04,13,51,26.30
2010,08,04,13,52,26.30
2010,08,04,13,53,26.30
2010,08,04,13,54,26.30
2010,08,04,13,55,26.30
2010,08,04,13,56,26.30
2010,08,04,13,57,26.30
2010,08,04,13,58,26.30
2010,08,04,13,59,26.30
2010,08,04,14,00,26.40
2010,08,04,14,01,26.40
2010,08,04,14,02,26.50
2010,08,04,14,03,26.60
2010,08,04,14,04,26.60
2010,08,04,14,05,26.70
2010,08,04,14,06,26.60
2010,08,04,14,07,26.60
2010,08,04,14,08,26.60
2010,08,04,14,09,26.60
2010,08,04,14,10,26.60
2010,08,04,14,11,26.60
2010,08,04,14,12,26.70
2010,08,04,14,13,26.70
2010,08,04,14,14,26.80
2010,08,04,14,15,26.80
2010,08,04,14,16,26.80
2010,08,04,14,17,26.80
2010,08,04,14,18,26.80
2010,08,04,14,19,26.80
2010,08,04,14,20,26.70
2010,08,04,14,21,26.70
2010,08,04,14,22,26.70
2010,08,04,14,23,26.80
2010,08,04,14,24,26.80
2010,08,04,14,25,26.90
2010,08,04,14,26,26.90
2010,08,04,14,27,26.90
2010,08,04,14,28,26.90
2010,08,04,14,29,26.90
2010,08,04,14,30,26.90
2010,08,04,14,31,26.90
2010,08,04,14,32,26.90
2010,08,04,14,33,26.90
2010,08,04,14,34,26.90
2010,08,04,14,35,26.90
2010,08,04,14,36,26.90
2010,08,04,14,37,26.90
2010,08,04,14,38,26.90
2010,08,04,14,39,26.90
2010,08,04,14,40,27.00
2010,08,04,14,41,27.00
2010,08,04,14,42,27.00
2010,08,04,14,43,26.90
2010,08,04,14,44,26.90
2010,08,04,14,45,27.00
2010,08,04,14,46,27.00
2010,08,04,14,47,27.00
2010,08,04,14,48,26.90
2010,08,04,14,49,27.00
2010,08,04,14,50,27.00
2010,08,04,14,51,27.10
2010,08,04,14,52,27.10
2010,08,04,14,53,27.10
2010,08,04,14,54,27.00
2010,08,04,14,55,27.00
2010,08,04,14,56,27.00
2010,08,04,14,57,27.00
2010,08,04,14,58,27.00
2010,08,04,14,59,27.10
2010,08,04,15,00,27.10
2010,08,04,15,01,27.20
2010,08,04,15,02,27.20
2010,08,04,15,03,27.20
2010,08,04,15,04,27.20
2010,08,04,15,05,27.20
2010,08,04,15,06,27.30
2010,08,04,15,07,27.30
2010,08,04,15,08,27.30
2010,08,04,15,09,27.30
2010,08,04,15,10,27.40
2010,08,04,15,11,27.40
2010,08,04,15,12,27.40
2010,08,04,15,13,27.40
2010,08,04,15,14,27.40
2010,08,04,15,15,27.40
2010,08,04,15,16,27.50
2010,08,04,15,17,27.60
2010,08,04,15,18,27.70
2010,08,04,15,19,27.80
2010,08,04,15,20,27.80
2010,08,04,15,21,27.90
2010,08,04,15,22,28.00
2010,08,04,15,23,28.10
2010,08,04,15,24,28.10
2010,08,04,15,25,28.10
2010,08,04,15,26,28.10
2010,08,04,15,27,28.10
2010,08,04,15,28,28.10
2010,08,04,15,29,28.10
2010,08,04,15,30,28.20
2010,08,04,15,31,28.20
2010,08,04,15,32,28.30
2010,08,04,15,33,28.30
2010,08,04,15,34,28.30
2010,08,04,15,35,28.40
2010,08,04,15,36,28.40
2010,08,04,15,37,28.50
2010,08,04,15,38,28.50
2010,08,04,15,39,28.50
2010,08,04,15,40,28.50
2010,08,04,15,41,28.50
2010,08,04,15,42,28.50
2010,08,04,15,43,28.50
2010,08,04,15,44,28.50
2010,08,04,15,45,28.50
2010,08,04,15,46,28.50
2010,08,04,15,47,28.60
2010,08,04,15,48,28.60
2010,08,04,15,49,28.50
2010,08,04,15,50,28.50
2010,08,04,15,51,28.50
2010,08,04,15,52,28.50
2010,08,04,15,53,28.60
2010,08,04,15,54,28.60
2010,08,04,15,55,28.70
2010,08,04,15,56,28.70
2010,08,04,15,57,28.80
2010,08,04,15,58,28.80
2010,08,04,15,59,28.80
2010,08,04,16,00,28.80
2010,08,04,16,01,28.80
2010,08,04,16,02,28.90
2010,08,04,16,03,29.00
2010,08,04,16,04,29.00
2010,08,04,16,05,29.10
2010,08,04,16,06,29.10
2010,08,04,16,07,29.10
2010,08,04,16,08,29.10
2010,08,04,16,09,29.10
2010,08,04,16,10,29.10
2010,08,04,16,11,29.10
2010,08,04,16,12,29.10
2010,08,04,16,13,29.10
2010,08,04,16,14,29.10
2010,08,04,16,15,29.10
2010,08,04,16,16,29.10
2010,08,04,16,17,29.20
2010,08,04,16,18,29.20
2010,08,04,16,19,29.20
2010,08,04,16,20,29.20
2010,08,04,16,21,29.20
2010,08,04,16,22,29.20
2010,08,04,16,23,29.20
2010,08,04,16,24,29.20
2010,08,04,16,25,29.20
2010,08,04,16,26,29.20
2010,08,04,16,27,29.20
2010,08,04,16,28,29.20
2010,08,04,16,29,29.20
2010,08,04,16,30,29.20
2010,08,04,16,31,29.20
2010,08,04,16,32,29.20
2010,08,04,16,33,29.20
2010,08,04,16,34,29.20
2010,08,04,16,35,29.20
2010,08,04,16,36,29.30
2010,08,04,16,37,29.30
2010,08,04,16,38,29.30
2010,08,04,16,39,29.30
2010,08,04,16,40,29.40
2010,08,04,16,41,29.40
2010,08,04,16,42,29.40
2010,08,04,16,43,29.40
2010,08,04,16,44,29.40
2010,08,04,16,45,29.40
2010,08,04,16,46,29.40
2010,08,04,16,47,29.50
2010,08,04,16,48,29.50
2010,08,04,16,49,29.60
2010,08,04,16,50,29.60
2010,08,04,16,51,29.70
2010,08,04,16,52,29.70
2010,08,04,16,53,29.80
2010,08,04,16,54,29.70
2010,08,04,16,55,29.70
2010,08,04,16,56,29.70
2010,08,04,16,57,29.70
2010,08,04,16,58,29.70
2010,08,04,16,59,29.70
2010,08,04,17,00,29.70
2010,08,04,17,01,29.70
2010,08,04,17,02,29.70
2010,08,04,17,03,29.70
2010,08,04,17,04,29.60
2010,08,04,17,05,29.60
2010,08,04,17,06,29.60
2010,08,04,17,07,29.60
2010,08,04,17,08,29.60
2010,08,04,17,09,29.50
2010,08,04,17,10,29.60
2010,08,04,17,11,29.60
2010,08,04,17,12,29.60
2010,08,04,17,13,29.60
2010,08,04,17,14,29.60
2010,08,04,17,15,29.60
2010,08,04,17,16,29.60
2010,08,04,17,17,29.60
2010,08,04,17,18,29.60
2010,08,04,17,19,29.70